星链-11514 (STARLINK-11514)

导读 | 豆包AI

STARLINK-11514是美国太空探索技术公司(SpaceX)旗下星链(Starlink)星座的一员,属于Starlink v1.5平台,由SpaceX自主研发制造,于2025年1月8日发射入轨。作为星链巨型低轨互联网星座的组成部分,该卫星旨在为全球提供高速卫星互联网接入服务,单星配备激光通信终端,可建立星间激光链路,支撑星座内高速通信,目前仍在轨运行。

基本信息
目录编号:
62514
目录名称:
STARLINK-11514
国际标识:
2025-004D
轨道中心:
EARTH
卫星名称:
星链-11514
卫星全名:
星链-11514 (STARLINK-11514)
卫星状态:
在轨 (已飞行477 天)
发射日期:
2025-01-08 UTC
国别 :
美国 (US)
星等 :
--
轨道信息
数据来源 国际轨道数据
星历时间: 2026-04-29T17:24:01+0800
20小时前
查看轨道信息
半长轴: 6734.553km
偏心率: 0.0002081
轨道倾角: 42.998°
近地点辐角 231.886°
升交点赤经 125.025°
平近点角 128.182°
近地点: 355.014km
远地点: 357.818km
周期: 91.669分钟
每日圈数: 15.708678
详细信息
固有亮度:
5
最大亮度:
2.5
卫星平台:
Starlink V1.0
覆盖范围:
全球
运营商:
太空探索技术公司
运营商所在国:
美国
制造商(研发单位):
太空探索技术公司
制造商所在国:
美国
使用方式:
暂无
卫星简介
Starlink 计划是 SpaceX 推出的全球卫星互联网项目,通过发射低轨道卫星,为全球尤其是偏远地区提供高速、低延迟的互联网服务。自 2019 年起,Starlink 已部署数千颗卫星,旨在缩小全球数字鸿沟,推动互联网普及。该项目还为军事、航空等行业提供通信支持,带来广泛经济效益。
2D轨道图
3D轨道图
轨道高度分析图
轨道倾角分析图
轨道综合分析图
查看轨道综合分析图